Volver al catálogo

NIMBUS 2 DEB

ActivoLEO
NORAD 26670·DEBRIS·🇺🇸 United States

Lanzado May 15, 1966 desde Vandenberg Space Force Base

Loading…

Próximos Pases (próximas 24 horas)

TLE

ActualizadoSource: Space-Track

Época: Sep 14, 2026, 01:27 UTC

1 26670U 66040K   26257.06101507  .00004374  00000-0  30024-2 0  9998
2 26670 100.2854 104.7600 0027659 200.0963 312.3538 13.99933632963034

Sigue NIMBUS 2 DEB en tiempo real con AllMySat

Download on the App Store